| time (UTC) | temp F | wind direction | speed MPH | gust MPH | rain 1hr in | rain 24hr in | rain mn in | humidity % | barometer mb |
| 20260509200043 | 74 | 236 | 3.0 | 11.0 | 0.00 | 0.00 | 0.00 | 29 | 1004.0 |
| 20260509194542 | 73 | 280 | 4.0 | 9.0 | 0.00 | 0.00 | 0.00 | 31 | 1004.3 |
| 20260509193041 | 71 | 37 | 4.0 | 12.0 | 0.00 | 0.00 | 0.00 | 31 | 1004.3 |
| 20260509191544 | 72 | 215 | 3.0 | 14.0 | 0.00 | 0.00 | 0.00 | 31 | 1004.4 |
| 20260509190041 | 72 | 174 | 5.0 | 13.0 | 0.00 | 0.00 | 0.00 | 30 | 1004.2 |
| 20260509184546 | 73 | 274 | 1.0 | 11.0 | 0.00 | 0.00 | 0.00 | 31 | 1004.1 |
| 20260509183039 | 73 | 153 | 3.0 | 11.0 | 0.00 | 0.00 | 0.00 | 32 | 1004.1 |
| 20260509181540 | 73 | 41 | 2.0 | 7.0 | 0.00 | 0.00 | 0.00 | 32 | 1004.1 |
| 20260509180105 | 72 | 108 | 2.0 | 11.0 | 0.00 | 0.00 | 0.00 | 31 | 1004.2 |
| 20260509174535 | 72 | 14 | 0.0 | 5.0 | 0.00 | 0.00 | 0.00 | 34 | 1004.3 |
| 20260509173041 | 72 | 236 | 2.0 | 9.0 | 0.00 | 0.00 | 0.00 | 31 | 1004.3 |
| 20260509171541 | 72 | 284 | 2.0 | 12.0 | 0.00 | 0.00 | 0.00 | 33 | 1004.5 |
| 20260509170046 | 72 | 36 | 2.0 | 8.0 | 0.00 | 0.00 | 0.00 | 36 | 1004.5 |
| 20260509164529 | 72 | 139 | 2.0 | 10.0 | 0.00 | 0.00 | 0.00 | 39 | 1004.4 |
| 20260509163027 | 69 | 179 | 2.0 | 8.0 | 0.00 | 0.00 | 0.00 | 51 | 1004.4 |
| 20260509161521 | 68 | 110 | 2.0 | 6.0 | 0.00 | 0.00 | 0.00 | 54 | 1004.3 |
| 20260509160021 | 66 | 122 | 2.0 | 10.0 | 0.00 | 0.00 | 0.00 | 60 | 1004.5 |
| 20260509154518 | 66 | 136 | 3.0 | 7.0 | 0.00 | 0.00 | 0.00 | 62 | 1004.4 |
| 20260509153018 | 64 | 137 | 3.0 | 7.0 | 0.00 | 0.00 | 0.00 | 65 | 1004.6 |
| 20260509151509 | 63 | 163 | 2.0 | 9.0 | 0.00 | 0.00 | 0.00 | 68 | 1004.5 |
| 20260509150007 | 62 | 153 | 2.0 | 9.0 | 0.00 | 0.00 | 0.00 | 72 | 1004.6 |
| 20260509144503 | 61 | 135 | 3.0 | 7.0 | 0.00 | 0.00 | 0.00 | 73 | 1004.6 |
| 20260509143109 | 60 | 124 | 1.0 | 8.0 | 0.00 | 0.00 | 0.00 | 75 | 1004.6 |
| 20260509141556 | 59 | 166 | 2.0 | 9.0 | 0.00 | 0.00 | 0.00 | 77 | 1004.6 |
| 20260509140053 | 58 | 134 | 2.0 | 9.0 | 0.00 | 0.00 | 0.00 | 79 | 1004.5 |
| 20260509134551 | 57 | 191 | 1.0 | 9.0 | 0.00 | 0.00 | 0.00 | 82 | 1004.6 |
| 20260509133104 | 56 | 211 | 2.0 | 8.0 | 0.00 | 0.00 | 0.00 | 82 | 1004.2 |
| 20260509131544 | 56 | 217 | 2.0 | 9.0 | 0.00 | 0.00 | 0.00 | 84 | 1004.4 |
| 20260509130042 | 55 | 131 | 1.0 | 10.0 | 0.00 | 0.00 | 0.00 | 87 | 1004.5 |
| 20260509124540 | 54 | 244 | 3.0 | 8.0 | 0.00 | 0.00 | 0.00 | 88 | 1004.4 |
| 20260509123037 | 53 | 130 | 2.0 | 8.0 | 0.00 | 0.00 | 0.00 | 90 | 1004.5 |
| 20260509121539 | 52 | 181 | 2.0 | 6.0 | 0.00 | 0.00 | 0.00 | 92 | 1004.4 |
| 20260509120035 | 52 | 168 | 1.0 | 6.0 | 0.00 | 0.00 | 0.00 | 93 | 1004.4 |
| 20260509114536 | 50 | 150 | 1.0 | 4.0 | 0.00 | 0.00 | 0.00 | 94 | 1004.3 |
| 20260509113036 | 50 | 149 | 1.0 | 4.0 | 0.00 | 0.00 | 0.00 | 94 | 1004.1 |
| 20260509111533 | 50 | 165 | 0.0 | 3.0 | 0.00 | 0.00 | 0.00 | 93 | 1003.9 |
| 20260509110032 | 51 | 58 | 1.0 | 5.0 | 0.00 | 0.00 | 0.00 | 93 | 1003.9 |
| 20260509104541 | 51 | 141 | 2.0 | 4.0 | 0.00 | 0.00 | 0.00 | 93 | 1004.1 |
| 20260509103034 | 51 | 145 | 0.0 | 5.0 | 0.00 | 0.00 | 0.00 | 92 | 1003.7 |
| 20260509101536 | 51 | 113 | 1.0 | 6.0 | 0.00 | 0.00 | 0.00 | 94 | 1003.7 |
| 20260509100030 | 50 | 148 | 1.0 | 4.0 | 0.00 | 0.00 | 0.00 | 95 | 1003.8 |
| 20260509094533 | 50 | 132 | 1.0 | 5.0 | 0.00 | 0.00 | 0.00 | 96 | 1004.1 |
| 20260509093025 | 50 | 135 | 0.0 | 1.0 | 0.00 | 0.00 | 0.00 | 95 | 1004.2 |
| 20260509091525 | 50 | 139 | 0.0 | 2.0 | 0.00 | 0.00 | 0.00 | 95 | 1004.5 |
| 20260509090020 | 50 | 134 | 0.0 | 1.0 | 0.00 | 0.00 | 0.00 | 94 | 1004.5 |
| 20260509084520 | 50 | 136 | 1.0 | 3.0 | 0.00 | 0.00 | 0.00 | 94 | 1004.5 |
| 20260509083017 | 50 | 155 | 0.0 | 3.0 | 0.00 | 0.00 | 0.00 | 93 | 1004.5 |
| 20260509081523 | 51 | 131 | 0.0 | 4.0 | 0.00 | 0.00 | 0.00 | 93 | 1004.6 |
| 20260509080016 | 51 | 117 | 0.0 | 2.0 | 0.00 | 0.00 | 0.00 | 93 | 1004.6 |
| 20260509074515 | 51 | 105 | 0.0 | 1.0 | 0.00 | 0.00 | 0.00 | 91 | 1004.6 |
| 20260509073030 | 51 | 143 | 0.0 | 4.0 | 0.00 | 0.00 | 0.00 | 91 | 1004.9 |
| 20260509071512 | 52 | 189 | 1.0 | 4.0 | 0.00 | 0.00 | 0.00 | 90 | 1004.9 |
| 20260509070017 | 52 | 155 | 1.0 | 4.0 | 0.00 | 0.00 | 0.00 | 90 | 1005.2 |
| 20260509064505 | 52 | 135 | 1.0 | 3.0 | 0.00 | 0.00 | 0.00 | 89 | 1005.5 |
| 20260509063004 | 52 | 156 | 0.0 | 4.0 | 0.00 | 0.00 | 0.00 | 89 | 1005.6 |
| 20260509061501 | 53 | 169 | 2.0 | 4.0 | 0.00 | 0.00 | 0.00 | 89 | 1005.7 |
| 20260509060113 | 53 | 143 | 1.0 | 5.0 | 0.00 | 0.00 | 0.00 | 89 | 1005.8 |
| 20260509054558 | 53 | 128 | 1.0 | 4.0 | 0.00 | 0.00 | 0.00 | 89 | 1006.0 |
| 20260509053057 | 53 | 131 | 1.0 | 4.0 | 0.00 | 0.00 | 0.00 | 88 | 1006.0 |
| 20260509051556 | 53 | 161 | 0.0 | 3.0 | 0.00 | 0.00 | 0.00 | 87 | 1006.1 |
| 20260509050051 | 54 | 169 | 0.0 | 2.0 | 0.00 | 0.00 | 0.00 | 86 | 1006.0 |
| 20260509044551 | 54 | 141 | 0.0 | 2.0 | 0.00 | 0.00 | 0.00 | 84 | 1006.1 |
| 20260509043051 | 55 | 160 | 0.0 | 2.0 | 0.00 | 0.00 | 0.00 | 82 | 1006.0 |
| 20260509041550 | 55 | 127 | 1.0 | 4.0 | 0.00 | 0.00 | 0.00 | 80 | 1006.0 |
| 20260509040049 | 56 | 160 | 1.0 | 5.0 | 0.00 | 0.00 | 0.00 | 77 | 1006.1 |
| 20260509034549 | 56 | 167 | 1.0 | 7.0 | 0.00 | 0.00 | 0.00 | 75 | 1006.2 |
| 20260509033048 | 57 | 153 | 0.0 | 4.0 | 0.00 | 0.00 | 0.00 | 74 | 1006.2 |
| 20260509031548 | 57 | 152 | 1.0 | 5.0 | 0.00 | 0.00 | 0.00 | 73 | 1006.2 |
| 20260509030051 | 57 | 91 | 0.0 | 5.0 | 0.00 | 0.00 | 0.00 | 69 | 1006.2 |
| 20260509024546 | 58 | 159 | 2.0 | 8.0 | 0.00 | 0.00 | 0.00 | 66 | 1006.2 |
| 20260509023045 | 57 | 144 | 0.0 | 2.0 | 0.00 | 0.00 | 0.00 | 66 | 1006.2 |
| 20260509021545 | 56 | 134 | 0.0 | 0.0 | 0.00 | 0.00 | 0.00 | 66 | 1006.2 |
| 20260509020053 | 57 | 152 | 0.0 | 0.0 | 0.00 | 0.00 | 0.00 | 64 | 1006.1 |
| 20260509014548 | 59 | 151 | 0.0 | 0.0 | 0.00 | 0.00 | 0.00 | 61 | 1006.1 |
| 20260509013043 | 60 | 158 | 0.0 | 3.0 | 0.00 | 0.00 | 0.00 | 58 | 1006.0 |
| 20260509011542 | 61 | 163 | 0.0 | 3.0 | 0.00 | 0.00 | 0.00 | 57 | 1006.0 |
| 20260509010041 | 62 | 141 | 1.0 | 4.0 | 0.00 | 0.00 | 0.00 | 55 | 1005.9 |
| 20260509004540 | 63 | 172 | 1.0 | 4.0 | 0.00 | 0.00 | 0.00 | 54 | 1006.0 |
| 20260509003043 | 64 | 169 | 2.0 | 6.0 | 0.00 | 0.00 | 0.00 | 52 | 1006.0 |
| 20260509001538 | 64 | 148 | 0.0 | 3.0 | 0.00 | 0.00 | 0.00 | 50 | 1006.1 |
| 20260509000038 | 64 | 141 | 1.0 | 4.0 | 0.00 | 0.00 | 0.00 | 49 | 1006.1 |
| 20260508234536 | 65 | 134 | 0.0 | 4.0 | 0.00 | 0.00 | 0.00 | 49 | 1006.1 |
| 20260508233036 | 65 | 110 | 1.0 | 5.0 | 0.00 | 0.00 | 0.00 | 47 | 1006.2 |
| 20260508231535 | 65 | 172 | 1.0 | 6.0 | 0.00 | 0.00 | 0.00 | 48 | 1006.2 |
| 20260508230034 | 66 | 171 | 1.0 | 4.0 | 0.00 | 0.00 | 0.00 | 47 | 1006.4 |
| 20260508224533 | 66 | 160 | 3.0 | 7.0 | 0.00 | 0.00 | 0.00 | 44 | 1006.3 |
| 20260508223039 | 66 | 160 | 3.0 | 5.0 | 0.00 | 0.00 | 0.00 | 46 | 1006.4 |
| 20260508221531 | 66 | 157 | 1.0 | 5.0 | 0.00 | 0.00 | 0.00 | 45 | 1006.5 |
| 20260508220033 | 66 | 141 | 0.0 | 10.0 | 0.00 | 0.00 | 0.00 | 48 | 1006.6 |
| 20260508214528 | 65 | 121 | 1.0 | 4.0 | 0.00 | 0.04 | 0.00 | 48 | 1006.8 |
| 20260508213027 | 65 | 141 | 2.0 | 8.0 | 0.00 | 0.04 | 0.00 | 48 | 1006.9 |
| 20260508211528 | 65 | 161 | 3.0 | 7.0 | 0.00 | 0.04 | 0.00 | 47 | 1006.9 |
| 20260508210025 | 66 | 121 | 3.0 | 7.0 | 0.00 | 0.04 | 0.00 | 46 | 1007.0 |
| 20260508204524 | 68 | 112 | 1.0 | 7.0 | 0.00 | 0.04 | 0.00 | 42 | 1007.0 |
| 20260508203022 | 69 | 353 | 1.0 | 10.0 | 0.00 | 0.04 | 0.00 | 40 | 1007.1 |
| 20260508201522 | 67 | 169 | 1.0 | 4.0 | 0.00 | 0.04 | 0.00 | 45 | 1007.4 |